Location: Ballingbuur
(53.0000°N, 5.7667°E)
Time: 17:46:24
(UTC+00:00)

Cosmos 2154 Rocket - Visible Passes

Search period start: 16 April 2021 00:00
Search period end: 26 April 2021 00:00
Orbit: 966 x 996 km, 82.9° (Epoch: 15 April)

Date Brightness Start Highest point End Pass type
(mag) Time Alt. Az. Time Alt. Az. Time Alt. Az.
16 Apr 4.2 01:02:34 10° NNW 01:08:43 53° W 01:09:55 47° SW visible
16 Apr 6.0 02:51:24 10° WNW 02:52:47 11° WNW 02:54:08 10° W visible
16 Apr 6.2 21:59:59 10° NNE 22:03:16 14° NE 22:06:33 10° E visible
16 Apr 4.4 23:44:05 10° N 23:50:21 57° ENE 23:52:03 44° ESE visible
17 Apr 4.9 01:30:02 10° NNW 01:35:34 32° W 01:36:50 30° WSW visible
17 Apr 5.8 22:26:18 10° N 22:31:08 22° ENE 22:34:11 16° E visible
18 Apr 3.9 00:11:11 10° N 00:17:35 90° W 00:18:58 58° S visible
18 Apr 5.5 01:57:52 10° NW 02:02:15 20° WNW 02:03:45 18° W visible
18 Apr 5.2 22:53:02 10° N 22:58:47 34° ENE 23:01:08 26° ESE visible
19 Apr 4.2 00:38:26 10° NNW 00:44:39 56° W 00:45:54 48° SW visible
19 Apr 6.0 02:26:50 10° NW 02:28:44 11° WNW 02:30:39 10° W visible
19 Apr 6.2 21:36:00 10° NNE 21:39:04 14° NE 21:42:08 10° ENE visible
19 Apr 4.5 23:19:58 10° N 23:26:14 54° ENE 23:28:04 41° ESE visible
20 Apr 4.8 01:05:53 10° NNW 01:11:30 34° W 01:12:51 31° WSW visible
20 Apr 5.8 22:02:15 10° N 22:06:58 21° ENE 22:10:14 15° E visible
20 Apr 4.0 23:47:04 10° N 23:53:29 86° E 23:55:01 55° SSE visible
21 Apr 5.5 01:33:40 10° NNW 01:38:12 21° WNW 01:39:48 19° W visible
21 Apr 5.2 22:28:57 10° N 22:34:38 33° ENE 22:37:12 24° ESE visible
22 Apr 4.2 00:14:18 10° NNW 00:20:33 59° W 00:21:59 48° SW visible
22 Apr 6.0 02:02:23 10° NW 02:04:43 12° WNW 02:06:46 10° W visible
22 Apr 6.2 21:12:03 10° NNE 21:14:53 13° NE 21:17:43 10° ENE visible
22 Apr 4.5 22:55:53 10° N 23:02:06 52° ENE 23:04:10 38° ESE visible
23 Apr 4.8 00:41:45 10° NNW 00:47:26 36° W 00:48:57 32° WSW visible
23 Apr 5.8 21:38:12 10° N 21:42:48 20° ENE 21:46:22 13° E visible
23 Apr 4.0 23:22:58 10° N 23:29:23 83° E 23:31:09 51° SSE visible
24 Apr 5.5 01:09:29 10° NNW 01:14:09 22° W 01:15:56 19° WSW visible
24 Apr 5.2 22:04:53 10° N 22:10:29 31° ENE 22:13:21 22° ESE visible
24 Apr 4.2 23:50:11 10° NNW 23:56:28 62° W 23:58:09 46° SSW visible
25 Apr 6.0 01:38:00 10° NW 01:40:40 13° WNW 01:42:55 11° W visible
25 Apr 6.2 20:48:08 10° NNE 20:50:41 12° NE 20:53:15 10° ENE visible
25 Apr 4.6 22:31:48 10° N 22:37:58 49° ENE 22:40:21 34° ESE visible
